Location: Dürabuch
(48.2640°N, 11.2185°E)
Time: 19:07:37
(UTC+00:00)

USA 234 - Pass Details

Date: 23 May 2024
Orbit: 1100 x 1107 km, 123.0° (Epoch: 16 June)

Event Time Altitude Azimuth Distance (km) Brightness Sun altitude
Exits shadow 00:56:34 18° 171° (S) 2,395 4.6 -17.2°
Maximum altitude 01:00:50 38° 228° (SW) 1,618 3.7 -16.9°
Drops below altitude 10° 01:06:51 10° 295° (WNW) 2,964 5.5 -16.4°
Sets 01:09:33 0° 304° (NW) 3,924 6.2 -16.2°
